Weather History for Cardiff-Wales, United Kingdom

Change the Weather History Date:

Sunday, March 31, 2013

  Actual Average Record
Temperature  
Mean Temperature 36 °F -  
Max Temperature 44 °F 53 °F 60 °F (2004)
Min Temperature 28 °F 40 °F 28 °F (2013)
Degree Days  
Heating Degree Days 29    
Moisture  
Dew Point 25 °F    
Average Humidity 64    
Maximum Humidity 93    
Minimum Humidity 43    
Precipitation  
Precipitation 0.00 in 0.07 in - ()
Sea Level Pressure  
Sea Level Pressure 29.90 in    
Wind  
Wind Speed 10 mph ()    
Max Wind Speed 18 mph    
Max Gust Speed -    
Visibility 6.2 miles    
Events      
Averages and records for this station are not official NWS values.
T = Trace of Precipitation, MM = Missing Value Source: Averaged Metar Reports

Daily Weather History Graph

Daily Weather History Graph

Search for Another Location

Airport:

Trip Planner

Search our weather history database for the weather conditions in past years. The results will help you decide how hot, cold, wet, or windy it might be!

Date:

Astronomy

Mar. 31, 2013 Rise Set
Actual Time 6:50 AM BST 7:45 PM BST
Civil Twilight 6:17 AM BST 8:18 PM BST
Nautical Twilight 5:36 AM BST 8:59 PM BST
Astronomical Twilight 4:53 AM BST 9:43 PM BST
Moon 12:02 AM GMT (3/31) 8:56 AM BST (3/31)
Length of Visible Light 14h 01m
Length of Day
12h 54m
Waning Gibbous, 80% of the Moon is Illuminated
Mar 31
Waning Gibbous
Apr 3
Last Quarter
Apr 10
New
Apr 18
First Quarter
Apr 25
Full

Hourly Weather History & Observations

Time (BST) Temp. Windchill Dew Point Humidity Pressure Visibility Wind Dir Wind Speed Gust Speed Precip Events Conditions
12:20 AM 33.8 °F 25.8 °F 26.6 °F 75% 29.95 in - East 10.4 mph - N/A   Clear
12:50 AM 32.0 °F 25.6 °F 26.6 °F 80% 29.95 in 6.2 mi East 6.9 mph - N/A   Unknown
2:20 AM 32.0 °F 24.8 °F 26.6 °F 80% 29.95 in 6.2 mi ENE 8.1 mph - N/A   Unknown
2:50 AM 32.0 °F 25.6 °F 26.6 °F 80% 29.98 in 6.2 mi ENE 6.9 mph - N/A   Unknown
3:20 AM 32.0 °F 23.6 °F 26.6 °F 80% 29.98 in 6.2 mi ENE 10.4 mph - N/A   Unknown
3:50 AM 30.2 °F 23.4 °F 26.6 °F 86% 29.95 in 6.2 mi ENE 6.9 mph - N/A   Mostly Cloudy
4:20 AM 30.2 °F 21.9 °F 26.6 °F 86% 29.95 in 6.2 mi ENE 9.2 mph - N/A   Scattered Clouds
4:50 AM 30.2 °F 21.9 °F 26.6 °F 86% 29.95 in 6.2 mi ENE 9.2 mph - N/A   Partly Cloudy
5:20 AM 28.4 °F 20.4 °F 24.8 °F 86% 29.95 in 6.2 mi ENE 8.1 mph - N/A   Partly Cloudy
5:50 AM 30.2 °F 21.9 °F 26.6 °F 86% 29.95 in 6.2 mi ENE 9.2 mph - N/A   Unknown
6:20 AM 28.4 °F 20.4 °F 26.6 °F 93% 29.95 in - ENE 8.1 mph - N/A   Clear
6:50 AM 28.4 °F 20.4 °F 26.6 °F 93% 29.95 in - ENE 8.1 mph - N/A   Clear
7:20 AM 30.2 °F 23.4 °F 26.6 °F 86% 29.95 in 6.2 mi ENE 6.9 mph - N/A   Partly Cloudy
7:50 AM 30.2 °F 22.6 °F 26.6 °F 86% 29.95 in 6.2 mi ENE 8.1 mph - N/A   Partly Cloudy
8:20 AM 32.0 °F 23.6 °F 26.6 °F 80% 29.95 in 6.2 mi ENE 10.4 mph - N/A   Partly Cloudy
8:50 AM 33.8 °F 24.8 °F 28.4 °F 81% 29.95 in 6.2 mi ENE 12.7 mph - N/A   Partly Cloudy
9:20 AM 33.8 °F 24.8 °F 28.4 °F 81% 29.95 in 6.2 mi East 12.7 mph - N/A   Partly Cloudy
9:50 AM 35.6 °F 27.1 °F 28.4 °F 75% 29.95 in 6.2 mi East 12.7 mph - N/A   Partly Cloudy
10:20 AM 37.4 °F 28.9 °F 28.4 °F 70% 29.95 in 6.2 mi East 13.8 mph - N/A   Partly Cloudy
10:50 AM 39.2 °F 30.8 °F 26.6 °F 61% 29.92 in 6.2 mi East 15.0 mph - N/A   Partly Cloudy
11:20 AM 39.2 °F 30.8 °F 26.6 °F 61% 29.92 in 6.2 mi East 15.0 mph - N/A   Partly Cloudy
11:50 AM 41.0 °F 32.8 °F 24.8 °F 53% 29.92 in 6.2 mi East 16.1 mph - N/A   Partly Cloudy
12:20 PM 41.0 °F 33.5 °F 23.0 °F 49% 29.92 in 6.2 mi East 13.8 mph - N/A   Unknown
12:50 PM 42.8 °F 35.8 °F 23.0 °F 46% 29.92 in 6.2 mi East 13.8 mph - N/A   Partly Cloudy
1:20 PM 42.8 °F 35.4 °F 24.8 °F 49% 29.92 in 6.2 mi East 15.0 mph - N/A   Partly Cloudy
1:50 PM 44.6 °F 38.1 °F 23.0 °F 43% 29.89 in 6.2 mi East 13.8 mph - N/A   Partly Cloudy
2:20 PM 44.6 °F 38.4 °F 23.0 °F 43% 29.89 in 6.2 mi East 12.7 mph - N/A   Partly Cloudy
2:50 PM 44.6 °F 38.8 °F 23.0 °F 43% 29.89 in 6.2 mi East 11.5 mph - N/A   Partly Cloudy
3:20 PM 44.6 °F 39.7 °F 23.0 °F 43% 29.86 in 6.2 mi ESE 9.2 mph - N/A   Mostly Cloudy
3:50 PM 44.6 °F 39.7 °F 24.8 °F 46% 29.86 in 6.2 mi ESE 9.2 mph - N/A   Scattered Clouds
4:20 PM 44.6 °F 39.7 °F 23.0 °F 43% 29.86 in 6.2 mi ESE 9.2 mph - N/A   Scattered Clouds
4:50 PM 44.6 °F 39.2 °F 23.0 °F 43% 29.86 in 6.2 mi ESE 10.4 mph - N/A   Partly Cloudy
5:20 PM 44.6 °F 39.2 °F 23.0 °F 43% 29.86 in 6.2 mi ESE 10.4 mph - N/A   Partly Cloudy
5:50 PM 44.6 °F 38.1 °F 23.0 °F 43% 29.83 in 6.2 mi East 13.8 mph - N/A   Unknown
6:20 PM 44.6 °F 38.1 °F 24.8 °F 46% 29.83 in 6.2 mi East 13.8 mph - N/A   Partly Cloudy
6:50 PM 42.8 °F 35.4 °F 24.8 °F 49% 29.83 in 6.2 mi East 15.0 mph - N/A   Scattered Clouds
7:20 PM 41.0 °F 33.5 °F 24.8 °F 53% 29.83 in 6.2 mi East 13.8 mph - N/A   Scattered Clouds
7:50 PM 39.2 °F 32.5 °F 26.6 °F 61% 29.83 in 6.2 mi East 10.4 mph - N/A   Partly Cloudy
8:20 PM 39.2 °F 30.8 °F 24.8 °F 56% 29.83 in 6.2 mi East 15.0 mph - N/A   Partly Cloudy
8:50 PM 37.4 °F 27.8 °F 24.8 °F 60% 29.86 in 6.2 mi East 17.3 mph - N/A   Partly Cloudy
9:20 PM 37.4 °F 27.5 °F 24.8 °F 60% 29.86 in 6.2 mi East 18.4 mph - N/A   Partly Cloudy
9:50 PM 37.4 °F 27.8 °F 24.8 °F 60% 29.86 in - East 17.3 mph - N/A   Clear
10:20 PM 37.4 °F 27.5 °F 23.0 °F 56% 29.86 in 6.2 mi East 18.4 mph - N/A   Mostly Cloudy
10:50 PM 37.4 °F 28.2 °F 23.0 °F 56% 29.83 in 6.2 mi East 16.1 mph - N/A   Scattered Clouds
11:20 PM 35.6 °F 25.5 °F 21.2 °F 56% 29.83 in 6.2 mi East 17.3 mph - N/A   Mostly Cloudy
11:50 PM 35.6 °F 25.5 °F 21.2 °F 56% 29.83 in 6.2 mi East 17.3 mph - N/A   Unknown
12:20 AM 35.6 °F 25.9 °F 21.2 °F 56% 29.83 in 6.2 mi East 16.1 mph - N/A   Unknown
12:50 AM 35.6 °F 25.9 °F 21.2 °F 56% 29.83 in 6.2 mi East 16.1 mph - N/A   Scattered Clouds